Wind_Speed
40 41 41 43 43 40 37 34 28 26 30 31 28 32 30 26 23 21 18 15 15 15 13 13 14 12 11 9 9 8 7 6 5 14 14 15 16 19 18 17 22 24 23
43 39 40 44 46 43 42 40 36 32 25 32 26 28 34 30 25 25 22 20 18 17 15 14 14 11 12 14 12 11 12 11 10 14 17 17 18 18 21 24 22 13 21
38 38 37 37 40 45 44 43 40 37 29 25 27 25 32 33 29 28 26 24 22 21 19 19 20 18 19 16 16 14 13 13 12 12 17 21 24 24 23 22 14 24 30
38 38 36 38 38 41 43 42 44 40 40 31 28 29 32 35 33 31 29 27 25 25 23 22 22 23 21 22 20 19 18 18 19 20 22 24 23 22 19 19 28 33 34
37 38 40 37 38 38 41 41 44 48 42 41 36 33 33 36 36 36 33 29 28 27 27 25 26 24 24 22 22 22 21 22 22 23 23 24 25 22 23 30 31 29 30
37 37 36 37 36 37 38 40 41 46 46 45 42 40 38 37 38 37 35 32 30 30 30 29 29 28 28 25 25 25 24 24 25 25 26 23 26 30 31 29 27 26 11
35 35 36 35 36 36 34 36 39 42 41 40 43 42 41 42 39 38 36 35 33 33 33 33 32 31 30 29 28 26 27 28 29 29 29 31 32 33 31 30 30 24 22
26 33 34 35 35 35 35 36 37 35 39 39 38 41 40 42 42 41 38 36 36 36 37 37 36 35 32 30 29 29 30 30 30 30 33 35 34 31 31 28 27 25 26
15 9 22 32 34 34 35 36 36 35 36 37 38 38 40 41 41 43 41 39 40 41 39 39 38 38 36 32 31 31 31 31 29 29 28 25 25 24 24 26 28 22 13
12 15 20 25 35 37 39 38 37 38 37 35 37 38 38 40 42 42 41 41 38 38 37 42 42 42 39 36 35 34 35 38 35 33 31 30 29 28 25 24 24 23 19
22 19 26 32 39 43 40 39 37 36 35 35 36 36 37 41 41 42 43 43 37 36 35 33 42 45 44 42 40 38 40 37 37 35 33 31 29 27 24 22 22 22 21
25 24 30 27 34 38 40 38 38 36 36 35 33 33 36 36 40 41 43 44 44 38 35 35 38 40 43 42 41 43 42 41 41 37 35 33 31 29 27 24 20 16 15
25 24 32 33 28 36 36 38 35 36 35 34 33 33 31 31 35 40 43 45 46 48 42 38 39 41 41 38 36 35 37 41 40 34 33 35 37 33 28 22 15 14 15
27 25 32 31 28 34 35 36 35 35 36 33 32 32 30 29 32 34 39 44 45 46 50 45 42 40 38 35 34 34 35 36 38 38 36 38 34 28 21 17 15 13 13
29 35 33 31 27 29 33 34 37 40 42 38 36 33 29 30 35 33 33 39 46 48 47 37 30 36 37 35 33 32 30 28 27 29 30 29 26 21 19 17 17 13 12
13 18 25 29 31 26 29 32 41 40 42 45 41 37 35 39 34 35 38 38 39 40 38 28 28 28 26 29 29 31 34 34 35 30 28 26 25 22 21 21 18 14 14
20 21 22 23 22 20 26 26 26 39 40 40 43 41 39 34 38 35 34 37 40 39 29 24 26 24 29 29 29 30 33 35 39 39 35 33 28 26 26 22 16 15 15
21 24 23 24 23 23 18 27 26 27 28 33 41 44 45 42 38 35 38 36 37 33 26 25 27 29 28 29 28 29 28 26 31 33 35 32 28 25 22 18 16 18 16
25 24 24 28 25 25 24 20 25 24 23 25 32 40 45 45 42 38 36 33 31 28 35 29 30 23 21 18 17 19 22 25 29 30 32 31 26 22 20 17 17 19 18
23 27 30 29 27 24 21 20 23 26 22 23 26 29 35 31 27 29 23 16 13 20 23 21 18 18 17 12 9 1 16 26 24 29 30 24 21 21 20 19 20 22 19
22 27 29 25 23 21 21 21 23 24 24 23 20 22 29 30 23 20 12 11 5 3 10 20 20 20 21 19 19 23 17 16 28 37 11 16 14 14 15 15 14 11 10
19 26 23 23 22 9 8 13 25 27 21 21 21 19 16 15 18 17 15 13 13 11 12 14 16 17 18 19 23 28 27 23 29 17 6 12 12 13 13 12 11 10 10
15 21 18 20 25 20 14 12 18 15 25 24 24 23 22 22 21 21 19 17 17 15 16 16 13 10 6 3 8 16 17 16 15 15 15 12 11 8 9 8 8 6 7
16 16 18 19 24 22 19 23 21 24 26 23 22 25 23 23 23 24 24 23 26 23 22 23 20 18 15 15 15 15 15 13 10 11 13 15 14 10 7 6 4 7 8
20 19 19 18 22 23 19 27 27 26 27 25 20 28 27 28 24 26 27 28 31 28 24 23 19 18 17 16 12 9 9 8 7 8 7 8 8 9 9 9 9 7 5
24 21 20 22 23 21 22 24 30 27 26 28 24 32 31 34 29 25 26 26 28 24 22 23 25 20 17 16 16 13 11 9 9 10 12 13 13 13 10 9 6 7 6
Wind_Direction
201 205 209 218 223 226 230 227 225 225 229 227 227 223 220 217 216 218 216 216 220 225 231 234 233 238 250 270 273 284 309 315 268 293 298 308 312 318 317 319 319 318 321
199 203 209 216 221 227 230 231 229 228 229 220 225 227 221 219 220 221 221 222 227 234 233 238 240 240 253 258 272 279 280 291 289 296 305 312 311 313 310 317 325 326 334
197 201 205 211 215 221 229 233 233 232 228 219 220 221 219 218 221 223 227 229 231 234 237 242 245 247 251 252 254 266 275 281 285 283 292 300 302 308 313 318 310 316 321
197 199 205 206 213 218 223 230 236 234 234 230 224 222 219 220 221 222 227 232 237 241 243 245 246 245 249 247 251 258 267 271 277 283 290 296 299 305 307 307 308 315 319
197 200 204 208 209 215 219 222 231 235 236 238 233 225 225 225 223 222 224 230 238 244 247 248 245 246 250 253 254 258 262 267 271 276 283 286 291 295 298 304 305 314 317
199 206 204 206 207 209 216 218 223 231 234 236 239 236 227 226 226 225 228 230 237 243 249 250 250 250 250 252 255 259 260 262 264 266 271 272 276 288 297 300 306 310 313
200 203 206 204 207 209 212 215 218 224 227 229 234 236 235 233 227 228 232 235 239 243 246 250 252 252 252 253 253 256 259 262 262 266 266 269 277 286 293 296 298 297 294
211 201 204 206 208 208 209 213 217 220 222 223 227 230 231 235 235 233 234 235 244 248 247 248 250 254 254 253 254 257 259 261 262 265 266 272 276 284 287 292 294 296 299
245 235 215 208 211 210 209 212 215 217 220 222 223 226 227 231 233 235 235 237 240 244 249 249 250 252 255 256 255 257 261 261 262 265 270 274 274 274 280 285 287 293 296
306 300 285 247 218 214 213 212 215 215 220 221 223 224 227 229 232 234 234 233 234 239 243 248 250 252 255 256 253 254 256 261 265 268 269 269 270 274 278 274 278 275 279
327 313 291 277 233 218 217 215 214 214 218 221 222 224 225 229 229 232 233 230 229 237 239 240 247 251 252 253 253 253 253 262 264 268 271 271 272 269 270 269 273 280 272
316 307 309 289 243 222 213 214 214 213 216 219 219 222 225 226 231 231 233 231 232 231 237 240 243 250 256 256 253 253 257 262 263 264 267 268 267 269 268 271 283 274 274
319 312 308 304 253 225 213 211 211 212 214 217 219 222 223 224 226 232 234 235 236 234 237 240 246 253 255 259 258 258 259 259 262 259 256 259 263 269 274 276 269 265 266
329 331 312 305 267 229 218 212 210 211 215 217 217 221 222 223 224 226 231 234 237 239 240 242 245 249 252 256 258 254 254 258 262 259 257 263 265 267 263 259 258 261 283
335 322 316 300 277 232 222 211 213 216 214 213 217 218 216 223 226 225 225 229 233 235 237 239 243 247 246 245 247 247 242 241 245 252 256 261 260 253 248 246 241 255 227
314 302 298 302 299 252 225 215 218 221 223 221 220 215 220 227 229 228 229 235 242 243 232 226 229 232 232 234 236 239 241 244 248 249 247 243 245 243 243 241 234 232 223
319 313 303 298 291 292 229 219 215 220 222 223 225 224 225 228 230 233 234 234 241 241 220 221 225 224 230 233 234 234 236 240 245 242 241 240 234 234 236 233 231 206 202
318 318 312 299 300 293 276 229 217 212 212 219 220 223 229 231 234 238 238 234 233 236 222 224 225 227 228 230 234 237 241 240 233 232 229 231 231 233 223 221 211 212 213
325 319 308 303 292 289 282 258 229 218 217 216 215 220 226 230 232 235 239 238 234 230 232 223 229 228 227 236 253 265 258 246 238 226 222 224 220 219 220 216 221 212 205
326 321 312 299 292 287 275 254 234 222 212 212 214 218 216 221 218 216 208 208 222 236 234 214 217 218 213 193 178 213 38 33 309 225 218 204 207 205 212 214 205 198 204
336 328 314 310 298 275 259 254 239 215 206 208 208 212 215 199 191 187 184 199 183 196 229 207 210 207 195 210 228 238 249 308 294 276 179 190 179 173 180 186 193 211 209
342 334 322 334 329 319 326 276 233 221 183 157 155 154 150 142 140 131 127 117 124 135 157 164 185 203 227 247 252 252 237 207 228 209 186 178 178 176 198 210 208 207 212
15 340 336 360 354 352 33 43 18 177 123 120 132 133 130 128 128 119 115 117 118 125 129 128 144 161 163 140 170 195 189 182 172 172 183 174 172 178 197 211 209 234 253
44 357 358 35 19 4 33 38 31 58 68 100 112 116 115 113 106 113 122 122 121 113 107 107 107 106 108 105 109 125 144 152 147 156 157 155 149 151 149 151 187 249 275
51 27 23 31 39 24 26 54 44 44 55 59 76 97 104 107 116 114 115 115 107 109 105 99 103 98 93 90 86 85 88 107 135 150 144 145 147 146 135 134 121 103 106
54 37 37 39 45 44 45 49 58 47 52 66 64 79 87 95 100 107 102 99 103 107 100 99 93 96 91 84 82 94 101 98 113 123 125 124 118 108 97 87 97 107 111
Height
801 807 813 818 824 828 832 836 839 841 843 845 846 848 850 853 855 856 857 858 859 860 861 862 863 864 865 866 867 867 867 867 867 865 864 864 862 861 859 858 856 853 849
791 801 807 812 819 823 826 829 834 837 839 841 842 843 846 850 852 853 855 856 857 858 858 860 860 861 862 864 864 865 865 865 865 863 862 861 860 859 857 855 852 850 847
787 794 800 807 812 816 822 825 829 833 835 837 838 839 841 845 848 850 851 853 854 855 856 857 858 859 860 861 862 862 862 863 863 862 861 860 857 857 854 852 849 847 845
780 786 794 797 804 809 816 821 825 828 830 832 834 835 837 840 843 845 847 849 850 852 853 854 855 856 857 858 858 859 860 859 860 859 858 856 855 853 852 850 847 845 840
772 777 783 791 795 802 807 813 818 822 825 827 829 831 832 835 837 840 842 844 845 846 847 848 849 851 852 853 854 855 856 855 855 854 853 852 851 850 849 847 844 842 837
765 771 777 783 789 792 798 804 810 813 817 821 822 824 826 829 831 834 836 838 840 840 841 842 843 845 846 847 849 850 851 851 850 851 850 848 846 846 844 843 840 838 835
759 765 771 775 781 785 791 797 800 803 809 812 815 818 819 822 825 828 831 832 833 834 834 835 837 838 839 840 842 843 844 844 845 845 844 843 842 841 840 838 837 835 833
756 760 763 768 773 777 783 788 793 797 799 803 806 809 811 813 817 820 824 826 826 826 827 828 829 830 832 834 835 836 837 837 837 838 837 836 837 835 835 834 832 831 829
753 755 760 763 767 771 774 778 784 790 792 793 796 800 802 804 808 812 817 819 819 818 820 821 822 823 824 827 829 830 829 828 830 831 830 830 830 830 831 829 826 826 824
752 754 755 761 761 762 764 769 774 778 783 787 788 790 792 794 797 801 807 810 811 811 812 813 813 815 817 819 822 822 821 820 822 822 823 823 823 823 824 823 822 820 819
741 746 751 755 752 752 756 761 766 770 775 778 779 781 783 784 787 791 795 799 802 803 803 803 802 804 807 809 812 813 811 814 814 815 815 816 816 815 816 816 815 814 813
747 745 744 741 743 744 746 751 756 761 766 768 770 771 771 774 777 780 784 788 791 793 792 793 794 796 798 801 804 805 807 808 808 808 808 808 808 808 809 809 809 808 806
744 738 737 736 737 740 738 741 746 752 756 758 760 760 760 765 768 769 772 776 780 783 783 785 786 788 791 794 797 799 800 801 802 803 801 800 800 800 803 803 803 804 803
735 730 733 731 730 731 732 733 737 740 744 747 748 749 751 755 756 759 762 766 770 773 776 778 781 783 784 786 789 790 791 794 795 794 793 793 794 796 797 798 798 799 798
728 725 726 729 724 720 721 723 725 727 731 732 734 739 742 742 743 749 752 754 757 760 766 772 775 776 777 779 781 782 782 783 783 784 787 790 790 791 792 793 793 793 793
751 748 739 732 723 718 715 716 717 719 723 723 726 727 729 730 735 739 743 746 749 754 759 763 765 766 769 771 771 773 774 774 776 778 779 778 783 786 787 787 787 786 786
744 740 737 731 725 715 709 708 709 710 713 715 718 720 722 723 729 731 735 738 742 746 750 753 755 758 758 760 762 763 761 762 766 767 771 772 773 774 777 779 781 781 781
740 732 725 721 715 710 705 702 701 702 703 705 708 711 713 716 721 724 729 732 732 735 741 744 746 746 748 750 752 753 754 757 757 758 761 765 768 769 772 772 773 776 778
729 726 720 716 712 706 701 697 695 695 696 697 698 701 704 708 713 716 719 722 724 727 730 734 737 740 743 746 750 751 752 752 752 751 752 753 758 764 766 768 769 770 772
724 718 713 710 704 697 694 688 687 687 687 690 691 692 696 702 706 708 712 717 718 720 724 728 731 734 736 738 739 739 742 747 760 748 745 744 750 755 760 761 764 766 768
711 709 708 702 693 687 684 681 679 677 677 680 684 688 691 693 698 704 709 712 714 717 719 723 725 727 729 731 728 724 730 725 739 755 716 742 744 749 755 759 762 765 765
708 708 705 696 689 682 677 674 670 668 665 671 679 686 691 695 697 702 708 711 711 713 716 719 723 725 726 725 724 721 719 730 749 731 726 743 746 748 753 756 759 760 760
706 713 705 696 690 685 676 669 667 664 661 669 680 687 690 693 696 701 704 710 713 718 715 715 721 723 726 726 725 723 723 727 733 736 739 741 745 748 752 756 757 756 757
706 714 708 698 695 690 680 674 672 667 646 668 678 685 693 698 701 700 706 713 709 714 717 719 726 727 729 732 734 733 733 736 736 738 743 745 743 746 752 753 751 753 755
713 714 708 706 697 693 690 682 681 679 680 680 688 687 696 696 706 707 710 714 706 718 725 721 728 731 734 734 736 737 739 741 742 742 745 744 748 749 749 750 747 749 754
718 719 715 707 704 703 694 694 689 692 692 692 702 694 702 696 706 713 713 713 715 723 730 733 729 736 740 741 740 742 743 743 743 745 745 744 746 748 749 747 750 753 754